Location: Dąbrowa Miętka
(51.3714°N, 18.6370°E)
Time: 21:56:04
(UTC+01:00)

ISS - Pass Details

Date: 28 January 2019
Orbit: 403 x 411 km, 51.6° (Epoch: 23 February)

Event Time Altitude Azimuth Distance (km) Brightness Sun altitude
Rises 17:29:19 0° 236° (SW) 2,327 1.7 -9.7°
Reaches altitude 10° 17:31:26 10° 230° (SW) 1,470 0.2 -10.0°
Maximum altitude 17:34:37 45° 156° (SSE) 567 -3.2 -10.5°
Enters shadow 17:36:56 17° 87° (E) 1,147 -2.2 -10.8°
